Location: Windsor
(43.2292°N, 89.3015°W)
Time: 09:12:23
(UTC+00:00)

Tiros 1 - Pass Details

Date: 01 June 2022
Orbit: 629 x 663 km, 48.4° (Epoch: 04 July)

Event Time Altitude Azimuth Distance (km) Brightness Sun altitude
Exits shadow 04:54:59 68° 228° (SW) 680 7.0 -23.3°
Maximum altitude 04:55:33 84° 155° (SSE) 637 6.9 -23.3°
Drops below altitude 10° 05:00:12 10° 66° (ENE) 2,014 9.8 -23.5°
Sets 05:02:32 0° 65° (ENE) 2,927 10.7 -23.6°
